GFSCGP_sfc_thetae_009.txt.gz
Theta_e
303 297 292 295 298 298 298 295 294 294 299 297 295 295 299 302 301 300 302 308 310 311 314 317 318 319 320 322 321 320 319 318 317 312 311 310 309 310 310 310 312 311 310 310
297 294 299 302 302 300 298 296 295 297 300 295 293 293 298 301 301 303 302 306 307 310 312 314 313 312 313 315 315 313 312 312 311 310 310 310 310 309 308 309 310 311 310 309
296 299 303 302 300 298 297 295 295 295 298 296 295 293 296 301 303 305 304 304 306 308 309 311 311 309 310 309 308 309 308 309 310 310 308 307 306 306 307 308 309 310 310 307
298 303 302 300 299 298 295 301 299 297 293 288 293 285 293 298 300 302 303 303 304 306 310 310 309 307 308 307 307 308 309 308 310 309 307 305 304 304 307 307 306 307 305 304
297 299 299 298 299 300 298 302 299 297 293 291 293 289 292 299 297 299 300 302 303 304 305 307 307 308 308 308 307 307 308 308 309 307 306 306 305 305 305 305 301 300 301 302
299 303 301 299 303 302 302 300 299 297 294 285 293 291 291 295 297 299 302 303 303 303 305 306 308 309 307 307 307 307 307 307 308 307 308 305 303 303 301 300 298 299 299 300
299 299 301 303 299 302 299 295 285 283 282 282 297 293 292 298 300 301 302 302 303 304 304 304 307 307 306 306 306 307 307 307 308 306 305 303 301 300 299 298 297 298 300 297
292 289 298 302 298 295 296 295 283 281 280 283 291 288 291 299 301 302 303 303 304 304 304 303 304 305 306 308 306 307 307 307 307 306 303 302 301 300 302 301 300 298 296 296
293 292 300 300 301 299 297 290 295 288 285 281 288 292 297 300 300 301 301 302 302 302 303 303 308 308 307 307 306 306 306 305 303 301 301 301 302 303 301 300 297 296 296 297
296 291 297 300 301 302 297 298 288 287 279 279 285 289 290 296 298 300 299 300 300 303 303 304 304 304 304 304 304 303 303 302 302 300 302 302 301 301 299 296 294 294 294 294
298 295 293 299 295 294 295 294 293 292 286 279 277 284 296 297 299 298 300 301 301 301 301 302 302 303 303 303 303 302 302 302 300 300 302 300 299 297 296 295 294 294 293 293
298 294 285 293 299 300 297 295 294 282 284 282 281 282 298 298 300 300 300 302 301 301 301 301 302 301 300 300 300 299 299 300 300 300 299 298 297 295 294 293 293 292 292 293
298 292 283 289 295 298 294 296 297 294 286 283 276 282 301 301 301 302 299 300 300 301 301 300 300 300 299 298 298 298 298 299 300 300 298 297 297 293 292 291 292 291 290 289
301 295 288 283 288 292 289 292 293 292 281 283 284 289 293 297 298 298 299 299 298 299 299 298 298 298 297 297 297 296 296 298 299 299 298 297 297 295 292 293 292 291 290 288
298 290 292 293 293 293 292 291 291 290 290 283 287 290 295 296 298 298 299 299 299 298 298 297 296 295 295 295 294 293 293 295 296 297 297 296 296 296 294 293 293 292 290 288
300 287 287 286 293 292 289 291 291 291 292 291 291 291 298 298 298 298 298 298 296 296 296 296 296 295 294 293 292 293 292 292 293 292 293 296 295 295 295 295 293 290 288 286
295 287 283 282 289 287 281 288 293 293 294 292 285 292 297 295 296 295 295 295 294 294 295 295 295 294 293 291 292 290 290 291 291 292 294 295 294 294 293 294 292 290 288 285
290 287 284 278 280 273 292 297 296 293 294 294 296 296 296 295 295 295 295 293 293 294 294 295 293 291 291 290 290 290 290 290 290 291 292 293 293 292 293 293 290 288 287 284
299 287 279 279 278 284 291 295 293 290 289 298 296 296 296 297 296 293 296 295 294 293 293 291 291 290 289 289 289 289 289 288 289 291 291 291 291 291 291 291 289 287 284 283
297 290 282 280 273 271 287 296 299 297 282 298 297 295 294 294 283 289 296 296 292 292 292 290 290 289 288 288 288 288 288 287 289 291 291 291 291 290 289 290 289 284 283 283
281 280 277 282 272 282 294 298 299 282 284 297 297 295 294 290 291 295 297 293 292 291 291 291 289 287 287 288 288 287 287 287 290 292 291 291 290 289 289 287 284 283 281 281
282 279 281 282 276 276 298 296 287 292 298 298 296 296 295 295 296 297 294 292 292 290 289 289 288 287 288 289 288 287 287 289 290 290 290 288 288 287 287 284 283 282 280 279
285 288 284 286 284 294 298 296 299 300 298 296 298 299 297 296 297 294 291 291 291 288 287 288 287 287 288 289 288 287 288 289 289 288 286 286 287 287 286 283 280 279 279 276
293 298 287 290 295 297 297 301 301 300 298 299 299 299 299 297 293 292 291 289 288 287 286 287 287 287 287 288 289 288 289 288 287 285 285 284 284 284 284 282 281 279 275 273
292 296 293 289 295 297 299 299 299 299 300 300 301 301 298 293 291 290 288 288 287 286 287 287 286 287 288 288 288 288 288 287 286 285 284 282 282 282 282 281 279 279 277 276
297 293 288 286 296 296 296 299 301 300 300 301 299 293 294 291 289 288 286 287 286 286 287 287 288 288 288 288 288 289 289 286 284 283 282 280 279 278 280 280 279 282 281 281

GFSCGP_sfc_thetae_012.txt.gz
Theta_e
301 295 291 293 295 296 297 292 291 291 296 295 294 294 296 298 302 304 306 308 307 307 310 313 316 319 319 319 318 316 316 314 317 311 310 308 306 307 307 310 312 311 310 309
296 292 297 300 300 298 297 294 292 296 299 294 293 293 296 300 299 304 306 307 306 306 308 309 310 310 310 311 313 313 309 309 308 310 309 309 307 309 310 310 310 308 306 305
293 296 301 300 297 297 296 293 292 293 295 294 295 292 295 299 302 303 303 306 307 306 305 307 307 306 307 308 307 307 306 307 307 309 308 307 308 308 307 307 305 304 304 303
296 301 300 298 296 296 293 298 297 295 291 286 291 283 292 296 298 301 302 303 305 306 307 307 306 305 305 304 304 305 306 306 307 307 306 306 305 304 305 303 301 300 301 301
295 297 297 296 296 298 296 299 296 295 291 289 290 286 290 296 295 297 299 302 303 304 306 305 305 305 305 304 304 304 306 306 307 306 306 306 303 301 302 299 298 298 300 301
297 301 298 297 300 300 300 298 297 295 292 283 291 289 288 292 295 298 300 301 302 302 303 305 305 306 305 304 304 303 306 306 306 305 305 302 300 299 298 297 298 300 300 298
296 297 299 301 297 299 297 293 283 283 282 281 294 289 289 296 299 300 300 299 301 301 302 303 304 304 305 304 305 306 305 304 304 302 300 300 299 298 300 299 299 297 298 297
290 288 295 299 296 293 295 292 282 281 279 282 291 286 289 298 301 303 304 301 302 302 302 303 302 302 303 304 304 304 303 301 301 300 299 299 299 301 301 299 299 297 295 294
290 291 298 298 298 298 295 288 294 286 283 280 286 290 295 298 299 301 301 303 302 299 300 302 302 302 303 302 301 303 303 301 300 299 299 299 302 302 299 298 295 294 294 295
295 288 296 297 300 299 294 296 288 285 278 278 283 286 287 293 295 297 297 297 299 300 300 301 301 301 301 301 301 303 303 301 300 299 299 299 298 298 296 294 293 293 293 293
296 292 291 297 293 292 293 291 291 290 283 278 276 282 293 295 296 296 297 298 298 299 300 300 300 299 300 299 299 299 298 299 299 298 298 297 296 295 295 294 293 292 292 291
296 291 283 291 296 297 295 293 291 280 283 281 280 281 297 296 297 299 299 299 300 301 299 300 299 298 297 297 296 296 296 297 299 299 298 297 296 294 292 293 293 291 291 291
295 289 282 288 293 295 292 294 295 290 283 281 275 280 297 298 297 298 297 297 298 298 297 297 296 296 296 296 295 294 293 294 296 297 296 296 296 294 291 291 291 293 291 291
299 293 287 283 287 290 287 290 293 289 280 282 282 286 292 294 295 296 296 296 295 295 296 295 294 294 294 294 292 291 291 292 292 293 294 294 293 294 291 291 292 292 293 293
296 288 290 290 291 291 289 289 289 288 288 283 286 288 292 294 294 296 297 296 295 295 295 295 294 293 292 291 290 290 290 291 291 290 290 292 293 293 292 293 292 292 293 293
297 286 286 286 291 291 287 289 289 289 290 289 289 289 295 296 296 295 295 294 294 295 294 294 294 293 291 290 289 289 289 290 290 289 292 293 293 293 292 292 293 291 291 288
291 285 282 280 286 286 280 287 290 290 291 290 285 290 294 293 294 293 292 293 293 293 293 293 293 291 289 288 289 287 288 289 289 290 292 292 293 291 291 292 291 290 289 289
288 285 280 276 278 271 288 294 294 292 292 294 293 293 293 294 294 293 293 292 292 293 293 291 289 288 288 287 287 288 288 288 288 290 290 290 290 289 290 290 289 289 288 284
294 283 279 274 277 281 288 293 291 289 288 295 294 294 294 294 292 291 294 294 293 291 290 289 288 288 287 287 287 287 287 286 288 289 289 289 289 289 289 288 287 287 284 282
293 286 280 280 272 270 283 294 297 295 283 296 296 294 293 292 283 288 295 295 291 290 290 288 287 287 286 287 287 286 286 286 288 289 289 290 289 289 288 287 286 284 282 283
280 278 277 272 270 279 289 295 297 282 283 296 296 294 293 289 289 293 295 292 290 290 288 288 287 286 286 287 286 286 286 286 288 289 289 289 287 286 286 284 283 282 282 281
282 279 277 276 271 275 294 295 287 290 295 297 295 295 294 294 295 296 295 290 290 287 287 287 286 286 287 287 287 286 285 287 288 288 287 286 285 285 285 281 281 281 279 278
284 286 283 285 284 292 295 295 296 298 296 295 294 296 296 295 295 295 291 288 287 285 285 286 285 286 286 287 287 286 287 287 287 286 285 284 284 284 283 280 279 278 278 274
292 295 286 288 293 294 296 297 299 299 297 297 297 297 297 296 295 289 287 286 285 284 284 285 285 285 285 287 288 287 287 287 286 284 283 283 282 282 282 280 280 278 273 272
290 294 291 288 293 295 297 297 298 297 297 298 299 300 298 291 287 287 285 285 285 284 285 285 285 285 285 286 287 287 287 286 284 284 283 282 280 280 281 279 278 278 277 276
294 292 287 287 294 293 295 297 299 297 298 301 298 291 289 288 286 286 285 285 285 284 285 285 285 285 286 286 286 286 286 286 285 283 282 281 278 277 279 279 280 282 281 281

GFSCGP_sfc_thetae_018.txt.gz
Theta_e
298 293 290 291 292 291 291 289 287 287 292 293 292 292 295 300 300 300 301 303 304 306 311 314 315 316 316 317 321 321 319 319 317 309 308 307 307 310 308 304 305 306 304 301
294 290 294 297 296 294 292 290 288 291 294 294 293 291 295 298 299 299 301 302 304 305 307 310 311 311 312 315 316 315 316 312 309 309 308 309 307 305 306 303 301 301 300 300
291 293 298 296 294 294 292 290 289 289 293 293 292 289 292 298 301 302 301 302 304 305 306 309 310 307 305 304 305 306 306 306 308 309 305 304 304 304 302 299 297 298 299 299
295 298 296 294 293 293 289 294 293 291 289 285 290 283 290 294 297 299 300 300 302 304 304 304 303 301 301 300 301 302 303 303 304 303 303 302 301 300 299 296 296 296 298 298
292 294 294 293 293 295 292 296 293 291 288 286 287 285 287 295 293 296 298 300 300 300 302 302 302 301 300 300 300 302 303 303 302 302 302 300 298 297 296 295 296 296 297 300
294 296 295 293 296 296 296 295 293 291 288 282 287 285 285 289 293 296 298 300 300 300 299 300 301 301 300 302 303 302 300 299 299 299 299 298 296 296 295 295 296 297 296 296
293 293 295 297 294 295 294 290 282 281 280 280 289 286 287 293 296 299 298 299 300 300 299 299 300 302 302 300 299 299 298 298 298 298 298 298 297 296 295 295 295 295 295 294
286 284 292 296 293 290 290 290 282 281 278 280 288 284 288 294 298 300 300 299 299 299 300 300 300 298 297 298 297 297 298 297 298 298 297 296 296 296 296 296 295 295 294 293
287 287 294 294 295 295 290 286 290 284 281 279 283 287 292 295 296 297 297 298 298 297 297 298 298 298 298 298 298 298 298 297 298 298 297 296 296 296 296 295 294 293 292 294
292 286 292 294 296 296 292 294 285 282 277 277 281 283 284 290 293 295 295 295 295 296 297 297 298 298 297 297 299 300 300 298 298 296 296 296 295 295 294 293 292 291 291 292
292 289 288 292 290 288 290 287 287 286 281 276 274 281 289 293 295 293 294 295 296 296 296 297 297 297 297 297 298 297 294 295 294 293 294 293 293 292 292 291 291 291 291 291
293 289 283 287 293 294 291 288 287 279 280 279 278 279 291 293 294 295 295 296 296 296 295 296 296 296 297 296 295 292 291 291 291 291 291 290 291 291 291 290 290 290 290 290
293 287 282 285 289 291 289 290 288 285 282 281 275 279 293 293 294 295 294 295 294 294 294 295 295 296 296 293 291 290 291 289 289 289 289 289 290 290 290 289 289 289 288 288
296 288 285 281 284 287 285 289 288 286 278 280 280 282 289 292 293 293 293 293 293 293 293 292 292 294 293 291 291 290 289 289 288 288 287 288 289 290 289 289 289 289 289 288
292 286 286 286 288 287 285 286 288 286 285 282 283 283 287 293 293 293 294 293 292 292 292 292 291 291 291 291 288 288 287 288 288 287 287 288 289 290 290 290 289 289 289 289
292 284 284 285 287 287 285 286 286 287 286 286 286 286 290 292 293 292 293 292 291 292 292 292 292 293 292 289 287 286 287 287 287 286 286 289 289 289 290 289 288 288 288 287
287 284 280 277 283 281 278 284 286 286 287 287 283 288 291 291 292 292 292 292 291 291 292 292 293 292 289 287 286 285 286 286 286 286 286 288 289 288 288 288 287 287 286 285
285 282 277 275 276 271 284 289 289 288 289 289 289 290 292 291 291 293 293 292 291 292 292 292 292 288 286 286 285 285 285 285 285 285 286 287 287 287 287 286 286 285 284 283
289 281 277 274 275 280 284 287 288 287 287 292 291 291 291 291 291 290 293 293 293 294 293 290 288 286 285 285 284 284 285 284 284 285 286 287 287 286 286 284 283 283 282 281
287 283 279 272 271 270 283 288 292 291 282 291 293 291 290 290 284 291 293 293 292 292 289 287 285 285 284 284 284 285 284 284 284 285 286 286 286 285 283 283 282 282 281 281
279 278 274 268 270 278 286 292 293 282 284 292 293 292 290 289 292 292 293 293 293 289 286 286 285 284 284 285 285 284 283 283 285 285 286 285 285 283 283 281 281 280 280 279
283 280 275 275 269 276 290 292 286 290 290 293 293 292 293 292 292 293 294 291 286 286 286 285 284 284 284 285 284 283 283 285 285 285 285 284 283 284 283 280 280 280 278 277
282 285 281 283 283 289 291 292 293 293 293 294 294 295 296 293 293 294 289 285 285 285 285 284 284 284 285 285 284 283 284 285 284 284 283 283 283 284 282 280 279 278 277 273
288 290 283 286 289 290 291 293 294 294 295 295 296 295 296 294 295 290 287 286 285 284 283 284 284 283 283 284 284 284 283 284 283 283 283 283 282 282 282 282 280 278 273 274
288 290 288 285 290 290 293 295 295 295 296 296 297 297 296 295 292 288 286 285 284 284 284 284 283 283 283 283 284 283 283 283 283 283 283 284 283 282 281 280 278 278 278 278
291 289 285 284 291 291 292 294 296 296 296 297 296 294 290 291 288 287 285 284 284 284 283 283 283 283 283 284 283 282 283 282 282 282 284 284 282 281 281 279 278 282 281 282

GFSCGP_sfc_thetae_021.txt.gz
Theta_e
301 298 295 297 296 295 294 293 293 294 297 299 297 299 300 304 306 307 308 310 311 312 315 318 321 324 325 325 325 324 322 321 317 313 313 314 314 314 309 309 309 309 308 308
299 296 298 300 299 297 295 294 293 295 298 299 298 298 302 303 302 305 307 309 311 311 313 316 319 322 324 324 324 324 323 323 316 316 317 319 317 314 309 308 307 307 308 307
296 298 300 299 297 297 295 295 294 294 297 299 298 296 299 303 305 306 307 310 312 312 313 315 316 318 318 319 321 321 317 316 316 317 315 313 314 312 309 306 305 306 306 306
298 300 298 297 296 297 294 298 296 295 295 292 295 290 296 300 302 305 307 310 311 313 315 313 310 310 311 311 313 314 313 312 311 311 313 312 310 309 306 306 306 306 306 305
297 298 297 297 297 299 296 298 297 294 293 293 293 293 293 300 299 303 305 307 309 311 311 307 307 307 307 308 310 310 309 309 309 310 310 308 306 306 306 306 304 305 306 305
297 301 299 299 299 299 300 298 297 295 294 288 291 291 291 297 301 303 304 305 306 307 306 306 306 306 306 309 309 308 307 306 308 308 308 307 306 305 305 305 305 305 306 306
296 296 299 300 298 299 299 296 289 288 288 286 291 290 294 298 301 305 304 305 306 307 306 305 306 307 307 307 306 306 306 305 307 307 306 306 305 305 304 304 304 304 304 304
290 289 295 299 298 295 295 296 291 283 284 287 291 289 294 298 302 307 307 306 306 305 305 306 307 306 306 305 306 306 306 305 305 305 305 305 305 305 305 305 304 303 302 302
291 290 298 298 299 299 294 291 295 288 285 286 289 292 297 298 299 303 303 304 304 305 305 305 305 305 304 305 305 306 305 304 304 304 305 304 305 304 302 301 301 301 301 300
295 290 295 297 299 299 297 296 290 289 282 281 285 287 291 294 297 301 301 302 304 304 304 304 304 304 304 305 305 306 306 303 303 303 302 302 300 300 300 300 299 299 299 299
296 295 293 296 294 294 294 292 290 290 287 283 281 286 296 298 299 300 302 303 303 303 303 303 303 302 303 304 304 303 300 301 300 299 298 298 299 299 299 298 298 298 298 298
296 293 290 291 296 298 296 293 292 287 284 284 284 287 295 298 301 302 302 301 303 303 303 303 302 301 301 301 299 296 298 296 296 297 297 297 298 298 298 297 297 297 296 297
297 292 287 290 293 295 294 293 290 289 288 285 286 287 295 297 297 300 301 301 300 300 301 301 301 300 299 297 295 296 295 295 295 296 295 296 296 297 297 296 297 297 296 296
299 291 290 287 288 291 290 292 291 291 287 285 287 289 292 297 297 298 299 300 299 299 299 300 300 299 298 297 296 294 294 295 294 294 294 294 295 296 297 297 297 297 296 296
297 291 290 290 290 290 290 290 290 289 289 288 289 288 292 296 299 299 299 298 297 297 297 297 297 297 297 297 294 294 294 294 294 293 293 293 294 296 296 296 296 295 295 295
294 289 289 288 289 289 289 290 290 290 290 290 289 290 295 297 298 297 297 297 296 296 297 297 296 296 296 295 294 293 293 293 293 292 292 292 294 295 295 295 295 294 294 294
291 289 286 283 285 285 283 288 290 290 291 293 289 294 296 295 296 298 298 298 297 297 297 296 296 297 297 296 293 292 292 292 291 291 291 291 293 293 294 293 293 293 292 292
288 286 282 283 281 280 289 293 292 291 292 292 292 293 296 296 297 298 299 298 297 297 297 296 296 297 294 293 292 291 291 290 290 290 290 292 292 292 292 292 292 291 291 291
291 286 281 283 282 284 288 288 290 290 291 294 293 294 295 295 297 298 298 299 299 299 298 297 296 293 291 291 290 290 290 290 289 289 290 291 292 291 291 290 290 290 289 289
289 287 287 280 281 279 288 290 296 295 288 295 296 295 294 296 294 298 298 298 298 299 296 292 290 289 290 289 290 289 289 288 289 290 290 290 291 290 290 289 289 288 288 287
285 284 284 277 283 284 290 293 296 287 290 294 296 296 295 296 300 299 299 297 298 295 291 290 289 289 289 290 289 288 288 288 289 290 290 290 289 289 289 288 288 287 287 286
286 284 283 279 280 282 292 295 291 296 296 296 297 297 297 299 296 296 296 294 291 287 287 288 288 288 289 289 289 288 287 289 289 289 289 288 288 288 287 288 287 286 286 284
286 289 288 287 289 294 294 297 298 297 296 298 298 299 299 297 296 297 293 289 288 288 288 288 288 288 288 288 288 287 288 288 288 288 288 288 288 288 287 287 287 285 284 283
291 291 290 289 293 291 294 297 297 298 298 299 300 301 299 298 297 294 289 287 288 287 286 287 288 287 287 288 287 288 287 287 287 287 287 288 287 287 288 287 286 284 284 283
292 291 290 289 293 294 295 297 300 300 299 298 300 300 300 299 297 289 287 286 286 286 287 287 286 286 286 287 287 288 287 287 286 286 287 287 287 286 286 286 285 284 284 284
293 292 290 291 296 296 296 298 299 299 299 300 299 297 297 296 290 289 287 287 286 287 286 286 286 286 286 286 286 286 287 286 286 285 286 287 287 287 286 285 284 283 283 282

GFSCGP_sfc_thetae_024.txt.gz
Theta_e
306 302 298 300 301 301 300 298 297 299 303 304 303 303 304 310 314 314 315 317 319 320 322 324 327 329 330 331 329 330 328 330 329 326 322 319 318 318 316 316 315 315 314 314
302 298 302 304 301 301 300 298 298 300 302 304 304 303 306 308 311 314 315 317 318 319 321 322 326 328 326 326 328 329 330 331 329 325 323 322 321 320 317 315 315 314 313 313
300 302 303 302 302 300 300 299 299 298 302 304 304 302 304 307 309 311 314 317 318 318 319 322 324 326 327 326 329 330 329 328 323 323 323 322 320 316 315 315 315 313 313 312
302 303 303 303 300 302 298 301 301 300 300 295 302 294 303 306 307 310 312 316 316 319 322 323 324 325 327 327 329 325 322 321 321 320 318 317 317 315 314 314 313 313 312 310
300 301 301 301 300 302 300 303 303 301 301 299 299 296 301 306 305 309 313 316 319 319 319 318 319 321 323 324 322 320 319 317 318 318 318 315 313 312 311 312 309 310 310 310
302 305 304 303 303 303 304 302 302 301 300 293 297 296 297 302 305 309 313 314 316 316 314 313 314 315 316 318 318 317 316 315 315 315 313 312 309 307 307 307 306 306 307 307
301 301 304 305 302 304 304 301 293 291 292 290 297 295 297 303 307 311 311 312 314 314 312 311 311 312 313 314 315 315 314 312 313 311 309 308 307 307 304 305 305 305 303 303
296 293 300 303 302 300 301 300 293 284 287 291 296 292 299 304 308 313 313 313 313 312 312 311 312 313 313 313 314 313 313 310 308 307 307 307 306 307 306 304 302 301 301 300
296 294 302 302 304 303 299 296 301 294 291 291 295 298 302 303 304 310 311 311 311 311 312 312 313 313 313 313 313 313 309 307 306 306 306 306 305 303 302 301 302 301 300 299
300 294 300 301 304 303 302 302 295 296 286 284 291 293 295 300 302 307 309 309 310 311 312 312 312 312 313 313 312 311 309 306 305 305 305 302 302 302 302 301 299 299 300 300
303 299 297 300 299 298 298 297 296 297 294 287 286 292 301 301 305 306 309 310 311 311 312 312 312 312 312 311 310 309 305 303 303 300 301 301 301 301 301 300 299 299 300 299
302 301 296 297 301 302 301 299 298 292 289 292 291 291 301 304 306 308 309 310 312 312 312 312 311 310 309 308 308 304 304 300 298 301 301 300 301 300 299 299 299 300 299 299
303 299 293 293 298 300 298 299 298 296 296 291 290 292 301 304 304 307 308 310 310 311 311 311 309 308 307 306 304 302 298 297 300 300 299 299 299 299 299 299 300 300 299 298
302 300 297 293 294 298 295 297 297 297 291 291 292 294 297 300 302 305 307 310 310 309 309 309 308 307 306 304 302 297 298 300 300 299 298 298 299 299 299 299 299 299 298 297
303 297 297 295 295 295 295 296 296 295 296 292 294 294 297 300 302 304 307 308 308 307 307 307 307 307 305 303 300 299 300 300 299 298 297 298 299 299 299 299 299 298 297 297
301 297 295 293 294 294 293 296 296 297 297 296 296 296 303 304 304 304 305 306 305 305 306 306 306 305 303 301 300 299 300 299 298 297 297 297 297 297 297 298 297 296 296 296
299 297 293 289 291 291 289 294 296 296 298 298 294 299 302 300 301 303 304 305 305 305 306 305 305 304 302 302 298 300 299 298 296 296 296 295 295 295 296 295 295 295 295 295
297 295 293 291 287 285 294 297 297 297 298 300 299 300 301 301 303 305 306 306 306 306 306 305 305 303 302 302 301 299 297 296 296 295 294 294 294 294 294 294 294 295 295 294
298 296 289 290 288 291 293 293 293 293 294 300 299 300 301 302 303 305 306 307 308 308 307 307 306 302 301 298 298 296 295 295 294 293 292 293 294 293 293 293 293 294 293 293
295 296 296 289 289 287 293 295 300 300 291 299 300 301 300 301 298 300 307 307 307 307 307 305 302 299 296 297 296 295 294 293 292 292 292 293 293 292 292 293 293 293 293 291
292 292 291 290 290 292 296 296 301 289 292 301 302 303 302 301 303 305 307 306 307 307 305 300 297 296 295 294 294 293 292 291 292 293 293 292 292 292 292 293 293 292 292 291
293 292 291 288 288 286 297 299 295 301 304 303 303 305 305 306 305 304 305 305 305 303 299 297 294 294 293 295 294 291 290 292 292 291 291 291 292 291 291 292 292 291 291 289
292 297 296 295 296 299 301 303 305 304 303 304 304 305 306 305 305 304 302 302 299 297 292 293 292 291 292 292 292 289 290 291 291 291 291 291 291 291 291 290 289 289 289 288
297 298 296 294 298 299 301 302 303 304 304 305 305 305 305 304 305 304 301 298 295 295 292 291 290 290 289 291 290 290 291 291 290 290 290 291 291 290 290 289 288 288 288 287
299 298 296 296 299 300 302 303 303 304 306 306 306 306 305 305 305 304 298 295 292 290 290 289 289 290 289 290 290 291 291 290 289 290 290 290 290 290 290 289 288 288 289 288
299 297 296 296 300 300 301 304 305 304 304 306 305 305 304 304 303 299 294 292 290 287 288 289 289 289 289 289 289 290 290 289 288 288 289 289 289 290 288 288 287 285 284 284

GFSCGP_sfc_thetae_030.txt.gz
Theta_e
308 302 298 299 303 302 300 298 297 300 304 302 302 302 303 307 310 314 315 316 317 317 322 324 324 326 329 332 330 329 329 328 327 326 324 322 320 320 320 320 319 318 317 316
304 299 303 305 304 302 301 298 298 301 303 302 300 300 304 307 308 312 314 315 318 319 322 324 325 328 331 330 329 328 327 327 328 328 326 324 321 320 319 317 317 316 315 314
299 302 306 304 301 299 300 298 299 298 300 301 301 297 302 307 310 311 313 316 318 319 321 323 324 327 329 329 329 328 327 328 329 329 326 324 322 317 315 315 314 313 314 312
302 306 303 301 300 301 297 304 302 300 298 292 302 291 298 304 306 310 312 313 316 318 323 323 324 326 326 328 329 329 329 329 329 327 322 320 316 312 315 315 313 312 313 310
301 302 302 300 301 305 299 304 303 301 298 298 297 293 298 304 302 307 312 315 317 319 322 322 325 324 324 328 328 330 330 328 324 322 321 319 315 315 313 311 309 308 309 309
302 307 305 303 306 306 306 303 303 302 299 290 295 294 295 299 302 306 311 314 317 320 321 322 325 325 324 328 329 327 326 321 321 320 319 318 313 310 307 306 306 307 305 305
300 301 306 308 303 305 303 299 293 289 290 290 299 295 299 303 307 306 310 313 317 319 320 321 322 323 323 324 323 321 319 317 318 317 314 311 308 308 306 306 305 301 301 300
294 294 302 306 303 299 301 299 293 284 284 291 298 292 297 306 309 313 315 317 318 318 319 319 319 320 322 319 319 318 316 315 315 312 310 309 308 306 305 305 301 301 300 299
295 294 305 305 306 304 300 296 302 295 297 294 293 296 303 306 306 310 314 315 316 316 315 315 316 317 318 317 317 316 315 314 312 309 308 307 305 303 302 302 303 302 299 299
300 291 302 304 305 305 302 303 295 297 287 285 291 293 295 301 302 307 311 313 315 315 314 314 314 315 316 316 316 317 316 313 309 309 308 305 304 304 302 302 302 300 299 299
304 299 299 302 299 297 300 298 298 297 297 290 288 291 302 301 304 305 310 313 315 315 314 313 314 315 316 316 316 316 315 310 308 306 305 303 302 303 302 302 301 300 299 298
304 301 296 298 304 305 303 301 300 296 291 296 295 292 304 304 305 308 308 312 315 316 315 314 314 315 315 315 315 314 313 308 306 306 303 302 303 302 301 301 301 300 299 299
305 299 293 294 300 303 299 300 300 301 300 294 292 292 304 304 303 306 307 310 313 315 315 315 314 314 314 314 314 313 311 308 306 303 301 301 301 301 300 301 300 299 299 298
308 300 296 292 295 300 297 299 299 298 294 293 293 295 299 302 302 304 306 308 310 313 314 314 314 314 314 314 313 312 310 308 303 303 301 301 300 301 301 300 299 298 299 298
305 296 298 298 300 300 299 298 298 296 298 293 296 295 299 302 303 304 307 308 307 308 311 313 313 314 313 313 313 312 309 305 304 302 301 299 301 300 300 299 298 298 298 297
306 299 299 297 300 300 297 299 299 298 298 297 297 296 303 305 305 304 304 304 305 306 307 311 313 314 314 313 311 310 306 304 303 301 300 300 300 300 299 297 297 296 297 296
304 301 297 293 296 294 289 296 297 298 299 299 294 300 304 302 302 304 305 305 305 307 307 308 311 312 314 313 310 307 305 304 301 301 299 300 299 298 297 296 295 295 294 295
303 302 300 294 290 284 295 301 299 297 299 300 300 300 301 302 304 304 305 306 306 306 308 309 309 311 313 313 307 307 304 302 302 299 298 298 297 295 295 294 294 294 294 293
306 302 295 290 290 293 295 298 296 295 295 300 299 300 301 302 304 304 308 308 307 307 307 308 310 311 312 311 307 305 302 301 298 296 296 296 295 294 293 293 293 293 292 292
300 304 298 293 289 285 297 299 302 300 292 301 301 301 301 302 297 301 308 308 308 308 309 308 310 311 310 306 304 302 297 295 295 295 294 294 294 293 292 292 292 292 292 292
295 296 291 292 290 294 301 301 302 291 295 303 303 303 303 301 304 308 310 309 309 309 309 311 309 306 304 303 299 296 296 294 295 294 294 293 292 292 292 292 291 291 290 290
294 294 290 296 288 286 302 300 294 303 306 305 304 305 305 307 307 307 307 307 307 307 306 304 297 295 295 296 296 293 292 293 293 292 292 291 292 292 292 291 290 290 288 287
296 300 299 297 297 304 304 303 305 307 305 305 306 306 306 306 306 307 307 308 306 305 301 297 294 293 293 294 292 290 291 292 291 291 291 291 292 292 291 290 288 287 287 285
302 304 301 300 301 302 303 304 305 306 306 307 307 308 308 306 307 307 307 303 301 296 295 295 293 291 290 291 291 291 292 292 291 290 290 290 290 290 289 289 288 287 285 284
303 303 299 300 302 303 304 306 307 307 308 306 307 306 303 304 305 302 296 295 293 293 293 292 291 290 290 291 290 291 292 291 289 289 289 289 289 289 289 289 288 285 286 286
304 301 300 299 303 303 303 303 305 302 301 301 301 299 297 297 296 294 292 292 291 289 290 289 290 290 290 290 291 292 292 291 289 288 288 287 287 287 287 287 286 288 286 286

GFSCGP_sfc_thetae_033.txt.gz
Theta_e
306 296 292 297 299 301 299 295 294 296 299 301 300 296 298 301 307 307 307 310 310 310 312 314 315 323 323 324 326 326 324 323 322 320 318 317 315 314 313 313 314 314 312 311
300 295 301 303 304 301 300 296 294 298 300 298 298 296 298 300 303 309 309 310 311 312 314 317 319 324 323 323 325 325 324 323 323 322 322 320 315 314 312 311 311 311 310 309
297 300 305 303 300 298 298 297 295 295 295 295 294 292 295 301 304 309 312 313 314 313 315 317 321 323 324 322 324 324 324 323 324 324 322 319 314 310 309 308 307 308 309 307
299 304 302 300 299 300 295 301 300 299 293 287 296 286 296 300 302 304 307 309 313 315 318 319 320 322 323 322 323 324 324 324 324 324 319 314 309 307 308 308 307 306 308 306
297 300 300 299 300 303 297 302 300 299 296 294 293 288 292 301 299 303 304 306 308 317 317 317 320 322 322 323 323 324 324 324 325 325 318 315 309 307 307 307 306 306 305 305
300 304 303 302 304 303 304 300 300 298 294 287 293 291 292 295 299 304 307 309 311 316 316 319 321 321 321 321 322 322 324 323 322 316 315 310 308 304 302 301 301 302 300 299
299 299 304 306 300 302 300 294 286 283 284 284 297 293 293 301 302 306 308 308 308 313 314 319 318 318 319 320 320 321 320 314 312 308 305 303 302 301 300 300 299 298 297 296
291 290 300 304 301 299 298 295 287 281 282 285 297 290 295 302 305 308 309 308 311 312 315 318 318 318 319 319 319 318 312 310 309 305 303 302 301 301 301 299 297 299 298 298
292 293 303 304 304 301 299 294 298 291 289 284 288 292 299 302 303 305 304 309 310 311 311 314 319 318 317 313 312 310 309 309 307 304 302 301 301 299 297 297 298 300 296 298
298 291 300 303 304 301 298 300 290 290 281 280 287 288 291 297 302 304 306 308 309 309 309 310 311 314 313 312 312 310 309 308 305 302 301 299 298 297 297 298 299 298 296 297
300 297 296 301 297 294 296 293 294 293 290 282 280 285 295 297 300 303 307 309 310 308 308 308 308 311 312 311 311 310 308 304 302 301 300 299 297 297 298 299 300 298 298 297
301 297 290 296 301 302 299 296 296 284 286 287 283 285 297 297 300 302 303 310 311 310 309 308 308 310 310 310 310 309 307 302 301 301 299 298 298 299 299 299 300 299 297 296
301 293 285 289 295 299 295 297 296 296 291 287 280 285 298 298 296 300 301 303 310 310 309 308 308 309 310 310 310 309 306 303 302 299 297 297 299 299 299 299 299 297 295 296
303 296 290 284 290 296 293 296 296 293 284 285 286 290 295 296 297 298 299 300 304 309 310 309 308 309 310 310 310 310 306 303 300 298 296 299 299 300 298 299 296 296 296 294
300 291 293 294 297 298 297 296 295 292 293 287 290 292 295 295 296 297 299 300 301 302 305 307 308 308 309 310 309 309 307 303 301 299 299 299 300 300 299 297 296 296 295 294
300 292 293 291 297 296 293 295 295 295 295 292 293 292 297 297 298 298 299 299 300 301 302 303 307 309 309 309 308 307 303 302 301 300 300 300 299 298 296 295 294 294 293 293
297 294 288 285 290 290 283 290 293 294 295 293 288 293 297 296 298 297 298 300 300 301 302 303 303 307 309 308 308 304 302 302 300 301 300 300 300 297 294 294 293 292 291 292
297 294 287 282 283 275 290 297 295 293 294 294 294 294 296 296 297 299 299 299 299 300 301 301 302 303 305 306 305 303 302 300 300 299 298 296 295 293 293 293 291 291 292 291
302 292 285 281 281 288 292 294 294 292 290 296 294 295 296 297 296 299 303 302 301 301 301 302 303 304 302 302 300 299 299 300 296 294 293 293 293 292 292 291 291 291 291 290
298 296 285 282 278 275 290 295 299 296 285 297 297 296 297 296 288 294 302 303 303 303 299 295 297 299 298 297 296 294 293 292 292 292 292 292 292 292 291 291 291 290 290 290
284 285 281 278 278 285 298 298 299 284 286 298 298 298 297 294 296 300 303 302 302 297 294 294 293 292 293 293 293 291 291 290 291 292 293 293 293 292 292 291 290 289 288 287
287 284 280 284 282 281 299 297 289 295 298 299 298 299 299 299 301 303 303 302 298 292 292 292 291 290 291 292 291 290 289 290 291 292 292 292 291 291 291 289 289 288 286 285
287 293 288 289 288 298 298 297 299 299 299 299 300 302 302 302 302 302 296 293 292 290 290 291 289 290 290 291 291 289 290 291 291 291 291 290 290 290 290 287 286 285 285 282
296 300 293 292 296 297 298 303 303 303 301 302 299 298 300 298 294 292 292 291 290 290 290 292 290 289 289 290 291 291 290 290 289 288 288 288 288 287 287 287 286 285 281 280
296 297 295 293 297 300 300 301 300 300 300 297 296 295 295 293 292 291 290 289 290 291 291 291 290 289 288 289 288 289 289 289 287 287 287 286 286 285 285 286 285 283 282 282
297 296 289 287 299 297 296 298 298 296 295 296 294 292 292 292 290 290 288 289 289 288 289 288 287 288 289 290 288 289 289 288 286 285 284 281 281 282 284 283 283 286 285 286

GFSCGP_sfc_thetae_039.txt.gz
Theta_e
302 294 291 293 295 296 294 293 291 292 297 299 297 295 302 306 309 310 309 308 314 318 321 323 323 324 324 320 319 321 319 318 319 318 315 312 311 311 310 310 311 312 311 309
295 292 298 299 298 298 295 293 292 296 298 298 295 295 295 304 309 311 309 305 311 317 319 321 322 323 322 318 320 320 320 318 318 319 314 313 312 311 310 310 310 309 309 306
292 295 301 299 296 295 294 292 292 293 296 291 293 291 293 298 306 309 309 307 310 316 316 319 320 319 320 317 319 320 320 318 318 318 316 312 310 308 307 307 306 306 307 305
295 299 299 297 295 296 291 297 296 294 291 284 291 283 291 295 300 304 308 306 307 313 315 317 318 317 318 318 320 321 320 318 319 319 316 311 309 308 306 306 305 305 306 304
293 297 296 295 296 298 294 299 296 295 291 289 289 285 288 294 294 301 305 306 307 310 312 313 316 317 318 318 319 320 320 320 320 320 318 313 309 307 306 304 304 302 301 301
295 299 298 297 301 300 300 296 295 294 291 284 289 287 287 291 296 297 304 307 309 308 309 313 316 317 316 318 319 319 320 320 320 319 317 313 309 306 305 303 301 300 297 296
294 296 299 302 296 299 296 291 283 282 282 282 292 288 290 296 297 299 300 303 308 309 310 314 315 316 317 317 319 320 320 319 319 319 317 312 310 307 307 304 302 297 295 295
288 286 296 300 297 294 293 291 283 279 279 282 292 286 292 298 300 301 301 303 303 309 312 316 317 317 318 318 320 320 320 320 318 316 314 310 308 307 307 304 301 299 298 297
289 290 298 300 301 299 295 290 294 287 285 281 286 290 294 298 300 301 300 305 305 308 312 315 318 318 318 319 320 319 319 318 313 310 306 303 302 301 304 303 302 299 298 297
294 287 296 299 300 300 296 297 288 287 281 280 283 284 287 294 297 300 300 302 306 308 311 313 316 317 319 318 319 318 317 314 306 303 303 303 304 304 304 302 300 298 298 298
296 291 290 297 295 293 292 290 290 290 285 280 278 284 290 295 297 300 299 301 305 308 311 314 315 316 317 318 317 316 311 307 302 301 301 301 302 301 301 300 299 298 298 297
297 291 286 291 297 298 295 292 291 283 283 284 281 283 294 294 297 300 302 303 305 308 312 314 315 316 316 315 315 315 311 307 304 302 300 299 300 300 299 299 298 297 296 295
298 290 284 287 292 294 293 293 294 291 286 284 279 283 294 294 294 297 302 304 306 307 308 311 312 314 314 314 313 312 311 307 302 300 300 300 299 299 298 298 298 296 296 297
299 292 288 284 288 292 289 292 292 291 282 284 284 287 293 294 294 295 296 299 303 306 306 306 308 311 314 313 312 310 305 303 302 301 299 298 299 299 299 299 298 297 295 295
297 289 290 290 291 293 292 292 291 289 289 285 288 288 292 293 292 293 294 296 301 304 304 304 304 305 307 308 309 308 305 303 301 301 300 298 299 299 300 297 294 296 295 294
296 288 289 287 291 291 289 292 291 291 290 290 289 289 293 292 293 294 295 296 296 297 298 300 303 304 304 306 306 306 303 302 301 299 299 299 300 298 296 295 294 293 293 293
292 290 285 283 286 286 282 288 290 291 292 292 286 291 291 291 293 293 294 295 295 296 297 299 299 303 303 303 304 302 299 298 298 299 300 300 298 296 294 293 293 292 292 292
291 288 284 281 281 275 289 293 293 291 290 290 291 291 293 293 293 294 295 295 295 296 297 298 298 299 299 299 298 298 298 298 298 298 299 297 294 292 292 292 292 292 293 291
296 288 282 280 280 285 289 290 290 288 286 291 291 292 294 295 295 295 298 297 295 294 293 292 292 294 295 296 297 295 292 291 291 291 292 292 293 293 293 292 293 292 290 288
292 290 286 279 278 276 288 292 294 293 283 293 293 293 294 292 286 291 296 293 291 291 291 290 291 290 290 290 291 289 288 289 289 291 292 293 293 293 293 292 291 288 288 287
284 283 282 276 276 283 290 294 294 283 285 294 295 294 293 291 292 292 291 290 290 290 290 290 289 288 288 290 290 289 289 289 292 294 295 295 294 293 293 290 287 286 285 284
286 282 278 279 275 279 294 293 287 290 293 295 294 295 295 294 291 290 290 289 289 288 289 289 289 289 289 289 291 290 290 293 293 293 293 292 291 290 289 286 286 285 283 282
286 289 286 287 286 293 294 293 295 296 295 296 297 297 296 291 289 289 288 288 288 287 287 289 288 288 290 291 291 289 290 291 291 290 288 287 287 287 287 285 284 282 281 280
292 295 289 290 293 294 295 295 296 297 296 296 297 296 292 289 289 288 288 288 288 287 287 288 287 288 287 289 289 289 289 289 287 286 285 285 284 284 284 283 283 282 280 279
292 294 291 289 292 294 294 293 293 292 292 292 292 292 290 290 289 288 288 287 287 287 288 288 287 287 287 289 288 287 287 287 285 285 284 284 283 283 283 283 283 283 283 283
294 292 289 287 295 294 293 293 293 291 290 291 290 289 290 289 288 287 286 286 286 286 288 288 287 287 285 284 284 284 285 284 283 283 283 281 281 281 282 281 282 285 284 285